Location: Unspecified
(0.0000°N, 0.0000°E)
Time: 00:44:02
(UTC+00:00)

NOSS 3-1 (A) - Pass Details

Date: 28 April 2019
Orbit: 778 x 1434 km, 63.4° (Epoch: 13 May)

Event Time Altitude Azimuth Distance (km) Brightness Sun altitude
Rises 04:19:37 0° 328° (NNW) 4,412 6.8 -23.7°
Reaches altitude 10° 04:22:32 10° 324° (NW) 3,483 6.2 -23.0°
Maximum altitude 04:31:03 57° 248° (WSW) 1,646 4.3 -21.0°
Drops below altitude 10° 04:39:32 10° 171° (S) 3,465 6.3 -18.9°
Sets 04:42:26 0° 166° (SSE) 4,387 6.9 -18.2°
